Flag Weather past 2 weeks in Frankfort, Kentucky, U.S.A.

Now
26 °F

Overcast.


Feels Like: 21 °F
Forecast: 20 / 37 °F
Wind: 5 mph from West

Location: Capital City Airport

Current Time: Nov 28, 2014 at 5:25:09 AM

Latest Report: Nov 28, 2014 at 4:53 AM


Visibility: 10 mi

Pressure: 30.42 "Hg

Humidity: 77%

Dew point: 20 °F

Location of FrankfortLocation

Historic Weather in Frankfort — Graph

°F

Frankfort temperature yesterday

Maximum temperature yesterday: 34 °F (at 12:53 AM)
Minimum temperature yesterday: 28 °F (at 8:53 PM)
Average temperature yesterday: 31 °F

Past Weeks' High & Low Weather Summary

 TemperatureHumidityPressure
High62 °F (Nov 22, 2:53 PM)97% (Nov 16, 6:53 PM)30.53 "Hg (Nov 16, 6:53 PM)
Low11 °F (Nov 18, 7:53 AM)30% (Nov 21, 2:53 PM)29.31 "Hg (Nov 23, 10:53 PM)
Average33 °F68%30.14 "Hg
* Reported Nov 13 3:53 AM — Nov 28 3:53 AM, Frankfort, Weather by CustomWeather, © 2014

Note: Actual official high and low records may vary slightly from our data, if they occured in-between our weather recording intervals... More about our weather records

Advertising

Frankfort weather history for previous 24 hours

 ConditionsComfort  
Time TempWeatherWind HumidityBarometerVisibility
3:53 AM
Nov 28
25 °FPassing clouds.5 mph75%30.42 "Hg10 mi
2:53 AM26 °FPassing clouds.No wind71%30.41 "Hg10 mi
1:53 AM28 °FOvercast.No wind69%30.41 "Hg10 mi
12:53 AM28 °FOvercast.3 mph69%30.42 "Hg10 mi
11:53 PM
Nov 27
28 °FOvercast.5 mph64%30.42 "Hg10 mi
10:53 PM28 °FOvercast.8 mph61%30.43 "Hg10 mi
9:53 PM28 °FOvercast.6 mph69%30.43 "Hg10 mi
9:03 PM28 °FMostly cloudy.7 mph69%30.41 "Hg10 mi
8:53 PM28 °FOvercast.8 mph69%30.43 "Hg10 mi
7:53 PM29 °FOvercast.10 mph69%30.42 "Hg10 mi
6:53 PM31 °FMostly cloudy.7 mph67%30.40 "Hg10 mi
5:53 PM31 °FMostly cloudy.9 mph69%30.39 "Hg8 mi
4:53 PM32 °FMostly cloudy.6 mph66%30.37 "Hg10 mi
3:53 PM32 °FMostly cloudy.9 mph64%30.35 "Hg10 mi
2:53 PM33 °FMostly cloudy.10 mph63%30.34 "Hg10 mi
1:53 PM33 °FMostly cloudy.13 mph61%30.33 "Hg10 mi
12:53 PM33 °FOvercast.9 mph61%30.32 "Hg10 mi
11:53 AM33 °FPartly sunny.7 mph61%30.32 "Hg10 mi
10:53 AM30 °FOvercast.9 mph69%30.33 "Hg10 mi
9:53 AM30 °FOvercast.10 mph72%30.29 "Hg10 mi
8:53 AM30 °FOvercast.6 mph75%30.27 "Hg8 mi
7:53 AM29 °FMostly cloudy.8 mph82%30.24 "Hg9 mi
6:53 AM29 °FMostly cloudy.6 mph82%30.21 "Hg9 mi
5:53 AM29 °FMostly cloudy.9 mph85%30.17 "Hg7 mi
Weather by CustomWeather, © 2014

See weather overviewHow to use our weather pages